MPEC 2004-A23 : 2004 AD

The following Minor Planet Electronic Circular may be linked-to from your own Web pages, but must not otherwise be redistributed electronically.


Read MPEC 2004-A22 Read MPEC 2004-A24


M.P.E.C. 2004-A23                                Issued 2004 Jan. 5, 13:23 UT

     The Minor Planet Electronic Circulars contain information on unusual
         minor planets and routine data on comets.  They are published
   on behalf of Commission 20 of the International Astronomical Union by the
          Minor Planet Center, Smithsonian Astrophysical Observatory,
                          Cambridge, MA 02138, U.S.A.

         Supported in part by the Steven and Michele Kirsch Foundation
             Prepared using the Tamkin Foundation Computer Network

                              MPC@CFA.HARVARD.EDU
          URL http://cfa-www.harvard.edu/iau/mpc.html  ISSN 1523-6714

                                    2004 AD

Observations:
     K04A00D* C2004 01 04.23925 04 59 02.17 -19 05 49.7          17.9 R EA023699
     K04A00D  C2004 01 04.24932 04 59 12.53 -19 01 14.0                 EA023699
     K04A00D  C2004 01 04.25936 04 59 22.75 -18 56 37.0                 EA023699
     K04A00D  C2004 01 04.26944 04 59 33.11 -18 51 59.5                 EA023699
     K04A00D  C2004 01 04.87868 05 10 50.42 -14 15 45.6          17.5 R EA023620
     K04A00D  C2004 01 04.89430 05 11 05.37 -14 08 44.7          17.7 R EA023620
     K04A00D  C2004 01 04.89822 05 11 09.09 -14 06 59.3          17.4 R EA023620
     K04A00D  C2004 01 04.92396 05 11 33.60 -13 55 25.4          17.9 R EA023620
     K04A00D  C2004 01 04.92724 05 11 36.77 -13 53 55.8          17.4 R EA023620
     K04A00D  C2004 01 04.93053 05 11 39.89 -13 52 28.1          17.8 R EA023620
     K04A00D  C2004 01 04.95767 05 12 05.64 -13 40 15.6          18.1 R EA023620
     K04A00D  C2004 01 04.96086 05 12 11.03 -13 38 48.2          17.2 R EA023J87
     K04A00D  C2004 01 04.96219 05 12 12.21 -13 38 12.7          17.7 R EA023J87
     K04A00D  C2004 01 04.96316 05 12 10.87 -13 37 46.7          18.0 R EA023620
     K04A00D  C2004 01 04.96351 05 12 13.59 -13 37 36.5          17.7 R EA023J87
     K04A00D  C2004 01 04.96485 05 12 14.85 -13 37 00.1          18.4 R EA023J87
     K04A00D  C2004 01 04.96864 05 12 16.07 -13 35 17.9                 EA023620
     K04A00D 5C2004 01 05.17523 05 16 04.20 -12 02 41.1          18.5 R EA023673
     K04A00D 5C2004 01 05.17616 05 16 05.18 -12 02 12.3                 EA023673
     K04A00D 5C2004 01 05.17815 05 16 06.96 -12 01 21.8                 EA023673
     K04A00D 5C2004 01 05.18068 05 16 09.30 -12 00 15.4                 EA023673
     K04A00D 5C2004 01 05.18484 05 16 13.10 -11 58 25.1                 EA023673
     K04A00D 5C2004 01 05.18594 05 16 14.13 -11 57 55.5                 EA023673
     K04A00D  C2004 01 05.24182 05 17 03.20 -11 33 02.7          17.5 R EA023926
     K04A00D  C2004 01 05.24212 05 17 03.47 -11 32 53.9          17.7 R EA023926
     K04A00D  C2004 01 05.24243 05 17 03.73 -11 32 45.4          17.4 R EA023926
     K04A00D  C2004 01 05.24398 05 17 05.11 -11 32 05.8          18.5 R EA023854
     K04A00D  C2004 01 05.24460 05 17 05.66 -11 31 49.9          18.3 R EA023854
     K04A00D  C2004 01 05.24522 05 17 06.32 -11 31 33.8          18.2 R EA023854
     K04A00D  C2004 01 05.25553 05 17 13.94 -11 27 02.8          17.1 R EA023H06
     K04A00D  C2004 01 05.25661 05 17 14.89 -11 26 33.6          17.3 R EA023H06

Observer details:
620 Observatorio Astronomico de Mallorca.  Observers S. Sanchez, R. Stoss,
    J. Nomen.  0.30-m f/9 Schmidt-Cassegrain + CCD.
673 Table Mountain Observatory, Wrightwood.  Observer J. Young.  0.6-m
    reflector + CCD.
699 Lowell Observatory-LONEOS.  Observer B. W. Koehn.  0.59-m LONEOS Schmidt
    + CCD.
854 Sabino Canyon Observatory, Tucson.  Observer J. E. McGaha.  0.356-m f/10.0
    Schmidt-Cassegrain + CCD.
926 Tenagra II Observatory.  Observers P. R. Holvorcem, M. Schwartz.  0.81-m
    f/7 Ritchey-Chretien + CCD.
H06 New Mexico Skies Observatory.  Observer R. Hutsebaut.
J87 La Canada.  Observer J. Lacruz.  0.30-m f/3.3 Schmidt-Cassegrain + CCD.

Orbital elements:
2004 AD
Epoch 2003 Dec. 27.0 TT = JDT 2453000.5                 MPC
M  23.78389              (2000.0)            P               Q
n   0.69924136     Peri.  302.03880     +0.59930598     -0.79170606
a   1.2571429      Node   110.68272     +0.77052734     +0.53037280
e   0.2624228      Incl.    7.27464     +0.21707135     +0.30316037
P   1.41           H   24.3           G   0.15           U   7
Residuals in seconds of arc
040104 699  0.4-  0.8-    040104 J87 (2.7+  5.3+)   040105 673  0.4-  0.5-
040104 699  0.4+  1.0-    040104 J87 (1.5+  4.9+)   040105 926  0.2+  1.0-
040104 699  0.3-  0.6+    040104 620  0.1+  0.0     040105 926  0.2+  0.1-
040104 699  0.4+  1.2+    040104 J87 (3.4+  5.5+)   040105 926  0.1-  0.1+
040104 620  0.1-  0.1-    040104 J87 (3.2+  5.7+)   040105 854  0.2-  1.8+
040104 620  0.0   0.2+    040104 620  0.0   0.7+    040105 854  0.4-  1.3+
040104 620  0.4-  0.1-    040105 673  0.5-  2.3-    040105 854  1.1+  0.9+
040104 620  0.4-  0.2-    040105 673  1.2+  1.9+    040105 H06  0.1-  0.5-
040104 620  0.4+  0.9+    040105 673  0.2+  0.3-    040105 H06  0.5-  0.1-
040104 620  0.3+  0.2-    040105 673  0.1+  1.0-
040104 620  0.1-  0.5-    040105 673  0.6-  0.9-

Ephemeris:
2004 AD                  a,e,i = 1.26, 0.26, 7                   q = 0.9272
Date    TT    R. A. (2000) Decl.     Delta      r     Elong.  Phase     V
2004 01 06    05 29.36   -06 02.8    0.029    1.006   143.0    36.0    18.1
2004 01 07    05 44.03   +00 35.7    0.030    1.010   149.9    29.3    18.0
2004 01 08    05 57.06   +06 28.7    0.033    1.013   155.6    23.6    18.0
2004 01 09    06 08.65   +11 34.5    0.035    1.016   160.3    19.0    18.0
2004 01 10    06 18.97   +15 55.9    0.038    1.020   163.8    15.6    18.1
2004 01 11    06 28.19   +19 38.0    0.041    1.023   166.1    13.3    18.2
2004 01 12    06 36.44   +22 46.3    0.044    1.027   167.3    12.1    18.3
2004 01 13    06 43.84   +25 26.3    0.048    1.030   167.6    11.8    18.5
2004 01 14    06 50.51   +27 42.7    0.052    1.034   167.2    12.2    18.7
2004 01 15    06 56.54   +29 39.3    0.055    1.038   166.4    12.9    18.9
2004 01 16    07 02.01   +31 19.6    0.059    1.041   165.5    13.7    19.0
2004 01 17    07 06.98   +32 46.2    0.063    1.045   164.4    14.7    19.2
2004 01 18    07 11.52   +34 01.2    0.068    1.049   163.4    15.6    19.4
2004 01 19    07 15.69   +35 06.5    0.072    1.052   162.3    16.5    19.6
2004 01 20    07 19.52   +36 03.4    0.076    1.056   161.3    17.4    19.7
2004 01 21    07 23.05   +36 53.1    0.080    1.060   160.4    18.2    19.9
2004 01 22    07 26.33   +37 36.7    0.085    1.064   159.5    18.9    20.0
2004 01 23    07 29.37   +38 15.0    0.089    1.068   158.6    19.6    20.2
2004 01 24    07 32.22   +38 48.5    0.094    1.072   157.8    20.3    20.3
2004 01 25    07 34.89   +39 18.0    0.098    1.076   157.0    20.9    20.4
2004 01 26    07 37.39   +39 43.8    0.103    1.079   156.3    21.5    20.6
2004 01 27    07 39.76   +40 06.4    0.108    1.083   155.5    22.1    20.7
2004 01 28    07 42.00   +40 26.1    0.112    1.087   154.8    22.7    20.8
2004 01 29    07 44.13   +40 43.2    0.117    1.091   154.1    23.2    20.9
2004 01 30    07 46.15   +40 58.0    0.122    1.095   153.5    23.7    21.0
2004 01 31    07 48.09   +41 10.7    0.127    1.099   152.8    24.2    21.1
2004 02 01    07 49.95   +41 21.5    0.132    1.103   152.2    24.6    21.3
2004 02 02    07 51.74   +41 30.6    0.137    1.108   151.6    25.1    21.4
2004 02 03    07 53.46   +41 38.1    0.142    1.112   150.9    25.5    21.5
2004 02 04    07 55.13   +41 44.2    0.147    1.116   150.3    25.9    21.6
2004 02 05    07 56.74   +41 48.9    0.152    1.120   149.7    26.3    21.6

Timothy B. Spahr             (C) Copyright 2004 MPC           M.P.E.C. 2004-A23

Read MPEC 2004-A22 Read MPEC 2004-A24


Our Web policy. Index to the CBAT/MPC/ICQ pages.

MPC